SWA3544 KLAX-KSLC

Flight info

Callsign SWA3544
Flight time 1h 31m
Altitude 37000
Route ORCKA5 LAS Q70 BLIPP Q842 WINEN MLF PITTT2
Aircraft B738/M-SADE2E3GIJ4RWZ/LB1D1

Departure

Time 2026-05-06 02:14
Airport Los Angeles International Airport (KLAX)

Arrival

Time 2026-05-06 03:45
Airport Salt Lake City International Airport (KSLC)
Time Latitude Longitude Altitude Speed Heading
2026-05-06 01:41 33.94757 -118.40193 91 ft 0 kts 109°
2026-05-06 01:42 33.94756 -118.40190 91 ft 0 kts 111°
2026-05-06 02:06 33.94757 -118.40193 92 ft 2 kts 111°
2026-05-06 02:07 33.94761 -118.40214 91 ft 3 kts 95°
2026-05-06 02:07 33.94764 -118.40235 93 ft 3 kts 104°
2026-05-06 02:07 33.94771 -118.40254 91 ft 3 kts 143°
2026-05-06 02:07 33.94788 -118.40264 91 ft 3 kts 167°
2026-05-06 02:08 33.94807 -118.40268 91 ft 2 kts 173°
2026-05-06 02:08 33.94814 -118.40269 91 ft 0 kts 173°
2026-05-06 02:10 33.94813 -118.40270 92 ft 0 kts 182°
2026-05-06 02:10 33.94817 -118.40280 91 ft 2 kts 333°
2026-05-06 02:11 33.94835 -118.40285 92 ft 5 kts 343°
2026-05-06 02:11 33.94886 -118.40284 93 ft 10 kts 38°
2026-05-06 02:11 33.94909 -118.40174 95 ft 18 kts 82°
2026-05-06 02:11 33.94927 -118.39997 92 ft 21 kts 83°
2026-05-06 02:12 33.94943 -118.39931 92 ft 0 kts 48°
2026-05-06 02:12 33.94944 -118.39929 92 ft 2 kts 47°
2026-05-06 02:13 33.95014 -118.39908 94 ft 17 kts 353°
2026-05-06 02:13 33.95041 -118.39972 94 ft 10 kts 264°
2026-05-06 02:13 33.95025 -118.40134 96 ft 39 kts 262°
2026-05-06 02:13 33.94961 -118.40748 98 ft 106 kts 263°
2026-05-06 02:14 33.94845 -118.41856 113 ft 156 kts 262°
2026-05-06 02:14 33.94728 -118.43223 579 ft 166 kts 262°
2026-05-06 02:14 33.94627 -118.44511 1646 ft 146 kts 265°
2026-05-06 02:14 33.94514 -118.45811 2046 ft 170 kts 265°
2026-05-06 02:15 33.94386 -118.47338 2342 ft 195 kts 265°
2026-05-06 02:15 33.94253 -118.49018 2667 ft 208 kts 265°
2026-05-06 02:15 33.94111 -118.50833 2933 ft 226 kts 265°
2026-05-06 02:15 33.93922 -118.52789 3214 ft 247 kts 263°
2026-05-06 02:16 33.93699 -118.54902 3791 ft 256 kts 263°
2026-05-06 02:16 33.93462 -118.57049 4539 ft 260 kts 263°
2026-05-06 02:16 33.93210 -118.59238 5242 ft 264 kts 263°
2026-05-06 02:16 33.92950 -118.61409 6167 ft 268 kts 263°
2026-05-06 02:17 33.92665 -118.63638 7122 ft 273 kts 262°
2026-05-06 02:17 33.92367 -118.65917 8031 ft 278 kts 262°
2026-05-06 02:17 33.92054 -118.68237 8944 ft 282 kts 263°
2026-05-06 02:17 33.91714 -118.70577 9886 ft 287 kts 262°
2026-05-06 02:18 33.91351 -118.72987 10529 ft 301 kts 261°
2026-05-06 02:18 33.90528 -118.75435 10698 ft 335 kts 236°
2026-05-06 02:18 33.88680 -118.77305 10937 ft 365 kts 207°
2026-05-06 02:18 33.86162 -118.78046 11348 ft 382 kts 179°
2026-05-06 02:19 33.84428 -118.77749 11947 ft 381 kts 161°
2026-05-06 02:19 33.81439 -118.75545 13071 ft 381 kts 133°
2026-05-06 02:19 33.80282 -118.73949 13559 ft 383 kts 124°
2026-05-06 02:19 33.78973 -118.71157 14251 ft 385 kts 108°
2026-05-06 02:20 33.79164 -118.64961 15726 ft 380 kts 62°
2026-05-06 02:20 33.80651 -118.62365 16615 ft 377 kts 50°
2026-05-06 02:20 33.82346 -118.59939 17345 ft 380 kts 49°
2026-05-06 02:21 33.84070 -118.57504 18004 ft 386 kts 50°
2026-05-06 02:21 33.85785 -118.54999 18640 ft 389 kts 51°
2026-05-06 02:21 33.87473 -118.52447 19001 ft 389 kts 51°
2026-05-06 02:21 33.89132 -118.49875 19028 ft 391 kts 52°
2026-05-06 02:22 33.90799 -118.47262 19036 ft 398 kts 52°
2026-05-06 02:22 33.92492 -118.44605 19040 ft 400 kts 52°
2026-05-06 02:22 33.94135 -118.41906 19045 ft 400 kts 54°
2026-05-06 02:22 33.95703 -118.39127 19455 ft 404 kts 56°
2026-05-06 02:23 33.97245 -118.36353 20184 ft 402 kts 56°
2026-05-06 02:23 33.98831 -118.33521 20823 ft 404 kts 56°
2026-05-06 02:23 34.00403 -118.30738 21357 ft 408 kts 56°
2026-05-06 02:23 34.02008 -118.27906 21923 ft 411 kts 56°
2026-05-06 02:24 34.03630 -118.25047 22532 ft 412 kts 56°
2026-05-06 02:24 34.05247 -118.22197 23236 ft 411 kts 56°
2026-05-06 02:24 34.06864 -118.19342 23768 ft 414 kts 56°
2026-05-06 02:24 34.08493 -118.16465 24185 ft 416 kts 56°
2026-05-06 02:25 34.10129 -118.13571 24644 ft 418 kts 56°
2026-05-06 02:25 34.11768 -118.10669 25141 ft 419 kts 56°
2026-05-06 02:25 34.13414 -118.07752 25600 ft 420 kts 56°
2026-05-06 02:25 34.15060 -118.04833 26061 ft 421 kts 56°
2026-05-06 02:26 34.16707 -118.01909 26527 ft 421 kts 56°
2026-05-06 02:26 34.18356 -117.98980 26937 ft 423 kts 56°
2026-05-06 02:26 34.21752 -117.92938 27669 ft 427 kts 56°
2026-05-06 02:27 34.23421 -117.89968 28039 ft 428 kts 56°
2026-05-06 02:27 34.25091 -117.86990 28475 ft 428 kts 56°
2026-05-06 02:27 34.26764 -117.84001 28889 ft 429 kts 56°
2026-05-06 02:27 34.28431 -117.81023 29401 ft 426 kts 56°
2026-05-06 02:28 34.30082 -117.78073 29975 ft 423 kts 56°
2026-05-06 02:28 34.31706 -117.75169 30439 ft 421 kts 56°
2026-05-06 02:28 34.33375 -117.72182 30643 ft 426 kts 56°
2026-05-06 02:28 34.35023 -117.69231 30805 ft 430 kts 56°
2026-05-06 02:29 34.36732 -117.66262 31082 ft 431 kts 54°
2026-05-06 02:29 34.38489 -117.63315 31396 ft 432 kts 53°
2026-05-06 02:29 34.40268 -117.60369 31641 ft 435 kts 53°
2026-05-06 02:29 34.42061 -117.57403 31871 ft 438 kts 53°
2026-05-06 02:30 34.43863 -117.54411 32120 ft 439 kts 53°
2026-05-06 02:30 34.45633 -117.51454 32891 ft 429 kts 53°
2026-05-06 02:30 34.47385 -117.48522 33147 ft 432 kts 53°
2026-05-06 02:31 34.50955 -117.42524 33364 ft 443 kts 53°
2026-05-06 02:31 34.52762 -117.39482 33661 ft 444 kts 53°
2026-05-06 02:31 34.54571 -117.36431 33923 ft 445 kts 53°
2026-05-06 02:31 34.56381 -117.33376 34115 ft 448 kts 53°
2026-05-06 02:32 34.58204 -117.30299 34338 ft 449 kts 53°
2026-05-06 02:32 34.60031 -117.27210 34603 ft 449 kts 53°
2026-05-06 02:32 34.61851 -117.24131 34835 ft 450 kts 53°
2026-05-06 02:32 34.63681 -117.21034 35059 ft 451 kts 53°
2026-05-06 02:33 34.65484 -117.17978 35212 ft 452 kts 53°
2026-05-06 02:33 34.66723 -117.15878 35369 ft 452 kts 52°
2026-05-06 02:33 34.70963 -117.08675 36002 ft 451 kts 52°
2026-05-06 02:34 34.72791 -117.05569 36225 ft 451 kts 52°
2026-05-06 02:34 34.74619 -117.02462 36414 ft 453 kts 52°
2026-05-06 02:34 34.76460 -116.99327 36560 ft 456 kts 53°
2026-05-06 02:34 34.78305 -116.96185 36759 ft 456 kts 53°
2026-05-06 02:35 34.80145 -116.93044 36880 ft 453 kts 52°
2026-05-06 02:35 34.83777 -116.86833 36937 ft 449 kts 52°
2026-05-06 02:36 34.87409 -116.80614 36930 ft 451 kts 54°
2026-05-06 02:36 34.91040 -116.74396 36938 ft 454 kts 52°
2026-05-06 02:37 34.95044 -116.68445 36934 ft 453 kts 46°
2026-05-06 02:37 34.99386 -116.62857 36901 ft 454 kts 45°
2026-05-06 02:38 35.03731 -116.57272 36902 ft 452 kts 46°
2026-05-06 02:38 35.08011 -116.51672 36871 ft 449 kts 46°
2026-05-06 02:39 35.12239 -116.46086 36861 ft 446 kts 46°
2026-05-06 02:39 35.16445 -116.40512 36893 ft 447 kts 46°
2026-05-06 02:40 35.20687 -116.34883 36892 ft 453 kts 47°
2026-05-06 02:40 35.24963 -116.29199 36892 ft 455 kts 47°
2026-05-06 02:41 35.29260 -116.23477 36873 ft 456 kts 47°
2026-05-06 02:41 35.33553 -116.17754 36875 ft 456 kts 47°
2026-05-06 02:42 35.37832 -116.12037 36880 ft 455 kts 47°
2026-05-06 02:42 35.42102 -116.06324 36882 ft 454 kts 47°
2026-05-06 02:43 35.46357 -116.00621 36895 ft 453 kts 47°
2026-05-06 02:43 35.50600 -115.94924 36914 ft 452 kts 47°
2026-05-06 02:44 35.54835 -115.89228 36898 ft 451 kts 47°
2026-05-06 02:44 35.59061 -115.83535 36912 ft 451 kts 47°
2026-05-06 02:45 35.63280 -115.77842 36910 ft 450 kts 47°
2026-05-06 02:45 35.67464 -115.72129 36933 ft 450 kts 48°
2026-05-06 02:46 35.71630 -115.66394 36939 ft 449 kts 48°
2026-05-06 02:46 35.75796 -115.60653 36927 ft 450 kts 47°
2026-05-06 02:47 35.79942 -115.54937 36937 ft 450 kts 47°
2026-05-06 02:47 35.84117 -115.49173 36934 ft 450 kts 48°
2026-05-06 02:48 35.88285 -115.43409 36922 ft 449 kts 48°
2026-05-06 02:48 35.92430 -115.37666 36937 ft 447 kts 48°
2026-05-06 02:49 35.96564 -115.31927 36912 ft 446 kts 48°
2026-05-06 02:49 36.00661 -115.26230 36904 ft 446 kts 48°
2026-05-06 02:50 36.04773 -115.20505 36877 ft 445 kts 48°
2026-05-06 02:50 36.08949 -115.14839 36871 ft 445 kts 43°
2026-05-06 02:51 36.13598 -115.09794 36874 ft 445 kts 40°
2026-05-06 02:51 36.18330 -115.04838 36817 ft 444 kts 41°
2026-05-06 02:52 36.23011 -114.99845 36812 ft 444 kts 41°
2026-05-06 02:52 36.27667 -114.94816 36811 ft 443 kts 41°
2026-05-06 02:53 36.32303 -114.89792 36806 ft 443 kts 41°
2026-05-06 02:53 36.36949 -114.84754 36816 ft 443 kts 41°
2026-05-06 02:54 36.41560 -114.79748 36801 ft 443 kts 41°
2026-05-06 02:54 36.46202 -114.74692 36781 ft 443 kts 41°
2026-05-06 02:55 36.50821 -114.69648 36764 ft 441 kts 41°
2026-05-06 02:55 36.55423 -114.64614 36771 ft 440 kts 41°
2026-05-06 02:56 36.60012 -114.59586 36771 ft 439 kts 41°
2026-05-06 02:56 36.64590 -114.54561 36770 ft 438 kts 41°
2026-05-06 02:57 36.69159 -114.49540 36768 ft 438 kts 41°
2026-05-06 02:57 36.73992 -114.44948 36779 ft 437 kts 33°
2026-05-06 02:58 36.79167 -114.40963 36766 ft 437 kts 32°
2026-05-06 02:58 36.84318 -114.37013 36773 ft 436 kts 32°
2026-05-06 02:59 36.88632 -114.33659 36774 ft 436 kts 33°
2026-05-06 02:59 36.93768 -114.29629 36788 ft 436 kts 33°
2026-05-06 03:00 36.98909 -114.25576 36784 ft 437 kts 33°
2026-05-06 03:00 37.04007 -114.21550 36789 ft 435 kts 33°
2026-05-06 03:01 37.09118 -114.17509 36788 ft 434 kts 33°
2026-05-06 03:01 37.14215 -114.13474 36792 ft 433 kts 33°
2026-05-06 03:02 37.19302 -114.09440 36798 ft 432 kts 33°
2026-05-06 03:02 37.24374 -114.05411 36802 ft 432 kts 33°
2026-05-06 03:03 37.29452 -114.01370 36805 ft 431 kts 33°
2026-05-06 03:03 37.34517 -113.97334 36760 ft 431 kts 33°
2026-05-06 03:03 37.37052 -113.95312 36470 ft 431 kts 33°
2026-05-06 03:04 37.39565 -113.93306 36214 ft 425 kts 33°
2026-05-06 03:04 37.42046 -113.91323 35959 ft 421 kts 33°
2026-05-06 03:04 37.44516 -113.89348 35730 ft 420 kts 33°
2026-05-06 03:04 37.46977 -113.87377 35482 ft 418 kts 33°
2026-05-06 03:05 37.49428 -113.85414 35242 ft 417 kts 33°
2026-05-06 03:05 37.51841 -113.83480 35008 ft 415 kts 33°
2026-05-06 03:05 37.54271 -113.81530 34865 ft 414 kts 33°
2026-05-06 03:06 37.59147 -113.77612 34820 ft 415 kts 33°
2026-05-06 03:06 37.63995 -113.73712 34827 ft 413 kts 33°
2026-05-06 03:07 37.68860 -113.69792 34818 ft 415 kts 33°
2026-05-06 03:07 37.73733 -113.65859 34820 ft 417 kts 33°
2026-05-06 03:08 37.78629 -113.61901 34807 ft 417 kts 33°
2026-05-06 03:08 37.83514 -113.57944 34811 ft 417 kts 32°
2026-05-06 03:09 37.88405 -113.53979 34810 ft 417 kts 33°
2026-05-06 03:09 37.93241 -113.50009 34805 ft 416 kts 35°
2026-05-06 03:10 37.97640 -113.45237 34796 ft 417 kts 41°
2026-05-06 03:10 38.01923 -113.40288 34802 ft 417 kts 41°
2026-05-06 03:11 38.06227 -113.35353 34800 ft 417 kts 41°
2026-05-06 03:11 38.10546 -113.30430 34800 ft 417 kts 40°
2026-05-06 03:12 38.14866 -113.25507 34807 ft 417 kts 40°
2026-05-06 03:12 38.19185 -113.20577 34831 ft 417 kts 40°
2026-05-06 03:13 38.23501 -113.15642 34858 ft 417 kts 40°
2026-05-06 03:13 38.27818 -113.10697 34878 ft 417 kts 40°
2026-05-06 03:14 38.32107 -113.05777 34898 ft 418 kts 40°
2026-05-06 03:14 38.36541 -113.01013 34897 ft 416 kts 30°
2026-05-06 03:15 38.41841 -112.98065 34910 ft 416 kts 22°
2026-05-06 03:15 38.47217 -112.95300 34907 ft 417 kts 22°
2026-05-06 03:16 38.52587 -112.92480 34894 ft 418 kts 22°
2026-05-06 03:16 38.57955 -112.89623 34879 ft 418 kts 22°
2026-05-06 03:17 38.63321 -112.86753 34855 ft 418 kts 22°
2026-05-06 03:17 38.68681 -112.83883 34832 ft 417 kts 22°
2026-05-06 03:18 38.74034 -112.81013 34825 ft 417 kts 22°
2026-05-06 03:18 38.79352 -112.78157 34834 ft 417 kts 22°
2026-05-06 03:19 38.84702 -112.75280 34812 ft 417 kts 22°
2026-05-06 03:19 38.90055 -112.72394 34821 ft 417 kts 22°
2026-05-06 03:20 38.98089 -112.68048 34270 ft 414 kts 22°
2026-05-06 03:20 39.00734 -112.66615 34038 ft 412 kts 22°
2026-05-06 03:20 39.03375 -112.65183 33801 ft 412 kts 22°
2026-05-06 03:21 39.06013 -112.63751 33531 ft 411 kts 22°
2026-05-06 03:21 39.08648 -112.62320 33263 ft 411 kts 22°
2026-05-06 03:21 39.11281 -112.60889 32996 ft 411 kts 22°
2026-05-06 03:21 39.13878 -112.59477 32734 ft 411 kts 22°
2026-05-06 03:22 39.16511 -112.58043 32476 ft 411 kts 22°
2026-05-06 03:22 39.19149 -112.56606 32217 ft 412 kts 22°
2026-05-06 03:22 39.21793 -112.55164 31961 ft 413 kts 22°
2026-05-06 03:22 39.24446 -112.53716 31701 ft 415 kts 22°
2026-05-06 03:23 39.27108 -112.52263 31455 ft 416 kts 22°
2026-05-06 03:23 39.29780 -112.50805 31207 ft 418 kts 21°
2026-05-06 03:23 39.32528 -112.49577 30950 ft 419 kts 15°
2026-05-06 03:23 39.35347 -112.48616 30710 ft 420 kts 13°
2026-05-06 03:24 39.38192 -112.47733 30469 ft 421 kts 13°
2026-05-06 03:24 39.41049 -112.46859 30231 ft 422 kts 13°
2026-05-06 03:24 39.43909 -112.45968 29991 ft 423 kts 13°
2026-05-06 03:24 39.46773 -112.45055 29750 ft 424 kts 13°
2026-05-06 03:25 39.49635 -112.44124 28956 ft 425 kts 14°
2026-05-06 03:25 39.52505 -112.43177 28017 ft 424 kts 14°
2026-05-06 03:25 39.55359 -112.42228 27320 ft 420 kts 13°
2026-05-06 03:25 39.58175 -112.41289 26616 ft 416 kts 13°
2026-05-06 03:26 39.60962 -112.40357 25959 ft 412 kts 13°
2026-05-06 03:26 39.63685 -112.39447 25324 ft 408 kts 13°
2026-05-06 03:26 39.66421 -112.38532 24697 ft 405 kts 13°
2026-05-06 03:26 39.69149 -112.37621 24027 ft 403 kts 13°
2026-05-06 03:27 39.71859 -112.36715 23372 ft 401 kts 13°
2026-05-06 03:27 39.74552 -112.35814 22637 ft 399 kts 13°
2026-05-06 03:27 39.77235 -112.34915 21965 ft 395 kts 13°
2026-05-06 03:27 39.79887 -112.34025 21322 ft 391 kts 13°
2026-05-06 03:28 39.82505 -112.33147 20688 ft 388 kts 13°
2026-05-06 03:28 39.85112 -112.32271 20076 ft 384 kts 13°
2026-05-06 03:28 39.87686 -112.31408 19468 ft 380 kts 12°
2026-05-06 03:28 39.90230 -112.30548 18878 ft 377 kts 13°
2026-05-06 03:29 39.92767 -112.29694 18280 ft 374 kts 12°
2026-05-06 03:29 39.95284 -112.28849 17596 ft 372 kts 13°
2026-05-06 03:29 39.97769 -112.28012 17257 ft 362 kts 12°
2026-05-06 03:29 40.00166 -112.27202 17084 ft 348 kts 12°
2026-05-06 03:30 40.02470 -112.26423 16929 ft 336 kts 12°
2026-05-06 03:30 40.04696 -112.25671 16776 ft 325 kts 12°
2026-05-06 03:30 40.06837 -112.24947 16616 ft 319 kts 12°
2026-05-06 03:30 40.09015 -112.24212 16518 ft 331 kts 12°
2026-05-06 03:31 40.11276 -112.23450 16339 ft 337 kts 12°
2026-05-06 03:31 40.13531 -112.22686 16145 ft 334 kts 12°
2026-05-06 03:31 40.15769 -112.21926 15960 ft 331 kts 12°
2026-05-06 03:31 40.17988 -112.21172 15773 ft 329 kts 12°
2026-05-06 03:32 40.20203 -112.20419 15594 ft 328 kts 12°
2026-05-06 03:32 40.22409 -112.19670 15415 ft 327 kts 12°
2026-05-06 03:32 40.24613 -112.18920 15223 ft 326 kts 12°
2026-05-06 03:32 40.26810 -112.18173 15029 ft 326 kts 12°
2026-05-06 03:33 40.29002 -112.17426 14839 ft 325 kts 12°
2026-05-06 03:33 40.31192 -112.16680 14671 ft 324 kts 12°
2026-05-06 03:33 40.33377 -112.15941 14495 ft 323 kts 12°
2026-05-06 03:33 40.35559 -112.15193 14301 ft 323 kts 12°
2026-05-06 03:34 40.37702 -112.14462 14134 ft 323 kts 12°
2026-05-06 03:34 40.39873 -112.13717 13975 ft 322 kts 12°
2026-05-06 03:34 40.42043 -112.12982 13783 ft 322 kts 12°
2026-05-06 03:34 40.44211 -112.12242 13614 ft 321 kts 12°
2026-05-06 03:35 40.46372 -112.11497 13421 ft 321 kts 12°
2026-05-06 03:35 40.48533 -112.10760 13233 ft 319 kts 12°
2026-05-06 03:35 40.50682 -112.10032 13037 ft 318 kts 12°
2026-05-06 03:35 40.52816 -112.09308 12862 ft 316 kts 12°
2026-05-06 03:36 40.54945 -112.08587 12687 ft 315 kts 12°
2026-05-06 03:36 40.57102 -112.08133 12511 ft 312 kts
2026-05-06 03:36 40.59239 -112.08040 12346 ft 311 kts
2026-05-06 03:36 40.61435 -112.07927 12168 ft 311 kts
2026-05-06 03:37 40.63570 -112.07818 12000 ft 311 kts 359°
2026-05-06 03:37 40.65722 -112.07983 11898 ft 309 kts 354°
2026-05-06 03:37 40.67863 -112.08278 11791 ft 309 kts 353°
2026-05-06 03:37 40.70003 -112.08572 11670 ft 309 kts 353°
2026-05-06 03:38 40.72132 -112.08839 11544 ft 302 kts 354°
2026-05-06 03:38 40.74184 -112.09084 11420 ft 291 kts 354°
2026-05-06 03:38 40.76157 -112.09311 11313 ft 280 kts 354°
2026-05-06 03:38 40.78068 -112.09534 11200 ft 270 kts 354°
2026-05-06 03:39 40.79907 -112.09751 11121 ft 261 kts 354°
2026-05-06 03:39 40.81684 -112.09961 11026 ft 252 kts 354°
2026-05-06 03:39 40.83412 -112.10167 10803 ft 249 kts 354°
2026-05-06 03:39 40.85139 -112.10372 10514 ft 249 kts 354°
2026-05-06 03:40 40.86846 -112.10576 10199 ft 250 kts 354°
2026-05-06 03:40 40.88607 -112.10785 9873 ft 252 kts 354°
2026-05-06 03:40 40.90340 -112.10991 9525 ft 254 kts 354°
2026-05-06 03:40 40.92104 -112.11201 9174 ft 255 kts 354°
2026-05-06 03:41 40.93879 -112.11356 8817 ft 256 kts
2026-05-06 03:41 40.95570 -112.10706 8441 ft 256 kts 32°
2026-05-06 03:41 40.96760 -112.08997 8145 ft 255 kts 60°
2026-05-06 03:41 40.97250 -112.06737 7839 ft 259 kts 84°
2026-05-06 03:42 40.96991 -112.04369 7509 ft 264 kts 111°
2026-05-06 03:42 40.95935 -112.02385 7172 ft 268 kts 140°
2026-05-06 03:42 40.94272 -112.01324 6845 ft 269 kts 173°
2026-05-06 03:42 40.92410 -112.01313 6554 ft 267 kts 179°
2026-05-06 03:43 40.90605 -112.01100 6194 ft 251 kts 173°
2026-05-06 03:43 40.88957 -112.00877 5862 ft 226 kts 175°
2026-05-06 03:43 40.87463 -112.00705 5568 ft 205 kts 174°
2026-05-06 03:43 40.86103 -112.00548 5305 ft 188 kts 175°
2026-05-06 03:44 40.84860 -112.00404 5100 ft 169 kts 174°
2026-05-06 03:44 40.83733 -112.00270 4823 ft 155 kts 174°
2026-05-06 03:44 40.82679 -112.00151 4624 ft 148 kts 175°
2026-05-06 03:44 40.81680 -112.00032 4419 ft 140 kts 174°
2026-05-06 03:45 40.80729 -111.99922 4248 ft 139 kts 172°
2026-05-06 03:45 40.79853 -111.99822 4234 ft 114 kts 174°
2026-05-06 03:45 40.79170 -111.99740 4229 ft 78 kts 177°
2026-05-06 03:45 40.78776 -111.99695 4233 ft 35 kts 174°
2026-05-06 03:46 40.78581 -111.99644 4232 ft 20 kts 162°
2026-05-06 03:46 40.78481 -111.99568 4229 ft 16 kts 136°
2026-05-06 03:46 40.78470 -111.99553 4229 ft 0 kts 133°
2026-05-06 03:46 40.78448 -111.99514 4229 ft 12 kts 116°
2026-05-06 03:47 40.78508 -111.99442 4230 ft 17 kts 354°
2026-05-06 03:47 40.78643 -111.99465 4231 ft 20 kts 355°
2026-05-06 03:47 40.78778 -111.99480 4235 ft 19 kts 355°
2026-05-06 03:47 40.78865 -111.99489 4235 ft 19 kts 355°
2026-05-06 03:48 40.79004 -111.99505 4232 ft 20 kts 355°
2026-05-06 03:48 40.79087 -111.99488 4232 ft 12 kts 57°
2026-05-06 03:48 40.79098 -111.99383 4232 ft 11 kts 86°
2026-05-06 03:48 40.79105 -111.99280 4232 ft 11 kts 84°
2026-05-06 03:49 40.79112 -111.99181 4231 ft 11 kts 85°
2026-05-06 03:49 40.79119 -111.99085 4231 ft 10 kts 84°
2026-05-06 03:49 40.79126 -111.98993 4231 ft 10 kts 84°
2026-05-06 03:49 40.79132 -111.98903 4230 ft 10 kts 85°
2026-05-06 03:50 40.79138 -111.98783 4229 ft 17 kts 86°
2026-05-06 03:50 40.79135 -111.98637 4231 ft 13 kts 138°
2026-05-06 03:50 40.79061 -111.98588 4230 ft 13 kts 105°
2026-05-06 03:50 40.79051 -111.98468 4230 ft 14 kts 102°
2026-05-06 03:51 40.79027 -111.98364 4228 ft 11 kts 147°
2026-05-06 03:51 40.78990 -111.98352 4228 ft 0 kts 179°